Hourly Data Report for November 19, 2016

All times are specified in Local Standard Time (LST). Add 1 hour to adjust for Daylight Saving Time where and when it is observed.

VICTORIA UNIVERSITY CS
BRITISH COLUMBIA

48°27'25.200" N
123°18'16.600" W
60.10 m
1018598
71783
WYJ

Download Data

Hourly Data (November 2016)
Hourly Data Report for November 19, 2016
TIME Temp Definition
°C
Dew Point Definition
°C
Rel Hum Definition
%
Wind Dir Definition
10's deg

Wind Spd Definition
km/h
Visibility Definition
km
Stn Press Definition
kPa
Hmdx Definition


Wind Chill Definition


Weather Definition


00:00 9.8 2.1 59 8 9   99.76     LegendNANA
01:00 9.9 2.7 61 9 8   99.66     LegendNANA
02:00 9.8 3.0 63 10 7   99.66     LegendNANA
03:00 9.6 4.2 69 10 6   99.61     LegendNANA
04:00 9.6 4.2 69 10 4   99.60     LegendNANA
05:00 9.6 5.0 73 9 6   99.62     LegendNANA
06:00 9.3 5.3 76 9 7   99.61     LegendNANA
07:00 9.2 4.6 73 10 6   99.65     LegendNANA
08:00 9.2 4.5 72 12 4   99.67     LegendNANA
09:00 9.0 5.1 77 9 5   99.76     LegendNANA
10:00 11.1 5.7 69 8 7   99.75     LegendNANA
11:00 11.0 6.5 73 10 7   99.75     LegendNANA
12:00 10.5 6.2 74 11 6   99.72     LegendNANA
13:00 10.6 7.0 79 10 7   99.70     LegendNANA
14:00 10.9 6.5 74 9 5   99.68     LegendNANA
15:00 10.0 7.0 82 9 7   99.69     LegendNANA
16:00 9.6 7.2 85 11 3   99.69     LegendNANA
17:00 9.5 7.4 86 10 5   99.68     LegendNANA
18:00 9.5 7.4 86 8 5   99.66     LegendNANA
19:00 9.6 6.5 81 8 4   99.59     LegendNANA
20:00 9.8 7.0 83 10 4   99.56     LegendNANA
21:00 10.0 7.0 82 2 8   99.53     LegendNANA
22:00 10.8 6.6 75 16 9   99.46     LegendNANA
23:00 10.2 7.1 81 12 4   99.49     LegendNANA

Notes on Data Quality.

Legend

  • E = Estimated
  • M = Missing
  • NA = Not Available
Date modified: